| time (UTC) | temp C | wind direction | speed KPH | gust KPH | rain 1hr cm | rain 24hr cm | rain mn cm | humidity % | barometer mb |
| 20260507140035 | 12 | 156 | 20.9 | 27.4 | 0.00 | 0.00 | 0.00 | 84 | 1014.1 |
| 20260507135523 | 12 | 158 | 17.7 | 27.4 | 0.00 | 0.00 | 0.00 | 84 | 1014.1 |
| 20260507135013 | 12 | 155 | 19.3 | 25.7 | 0.00 | 0.00 | 0.00 | 85 | 1014.1 |
| 20260507134503 | 12 | 184 | 17.7 | 24.1 | 0.00 | 0.00 | 0.00 | 84 | 1014.1 |
| 20260507134055 | 12 | 154 | 17.7 | 24.1 | 0.00 | 0.00 | 0.00 | 84 | 1014.1 |
| 20260507133534 | 12 | 154 | 17.7 | 24.1 | 0.00 | 0.00 | 0.00 | 84 | 1014.1 |
| 20260507133030 | 12 | 149 | 16.1 | 22.5 | 0.00 | 0.00 | 0.00 | 84 | 1014.1 |
| 20260507132520 | 12 | 159 | 16.1 | 24.1 | 0.00 | 0.00 | 0.00 | 84 | 1014.1 |
| 20260507132003 | 12 | 153 | 19.3 | 24.1 | 0.00 | 0.00 | 0.00 | 84 | 1014.1 |
| 20260507131557 | 12 | 157 | 17.7 | 22.5 | 0.00 | 0.00 | 0.00 | 84 | 1014.1 |
| 20260507131043 | 12 | 167 | 14.5 | 22.5 | 0.00 | 0.00 | 0.00 | 84 | 1014.1 |
| 20260507130536 | 12 | 185 | 14.5 | 22.5 | 0.00 | 0.00 | 0.00 | 84 | 1014.1 |
| 20260507130022 | 12 | 145 | 14.5 | 22.5 | 0.00 | 0.00 | 0.00 | 84 | 1014.2 |
| 20260507125514 | 12 | 160 | 16.1 | 22.5 | 0.00 | 0.00 | 0.00 | 84 | 1014.3 |
| 20260507125004 | 12 | 150 | 16.1 | 22.5 | 0.00 | 0.00 | 0.00 | 83 | 1014.2 |
| 20260507124601 | 12 | 157 | 14.5 | 22.5 | 0.00 | 0.00 | 0.00 | 83 | 1014.2 |
| 20260507124044 | 12 | 175 | 14.5 | 24.1 | 0.00 | 0.00 | 0.00 | 84 | 1014.2 |
| 20260507123526 | 12 | 148 | 16.1 | 22.5 | 0.00 | 0.00 | 0.00 | 84 | 1014.2 |
| 20260507123014 | 12 | 150 | 14.5 | 22.5 | 0.00 | 0.00 | 0.00 | 84 | 1014.2 |
| 20260507122502 | 12 | 154 | 16.1 | 22.5 | 0.00 | 0.00 | 0.00 | 83 | 1014.3 |
| 20260507122054 | 12 | 150 | 14.5 | 20.9 | 0.00 | 0.00 | 0.00 | 83 | 1014.3 |
| 20260507121545 | 12 | 150 | 14.5 | 22.5 | 0.00 | 0.00 | 0.00 | 83 | 1014.3 |
| 20260507121034 | 12 | 205 | 12.9 | 17.7 | 0.00 | 0.00 | 0.00 | 83 | 1014.4 |
| 20260507120524 | 12 | 153 | 12.9 | 19.3 | 0.00 | 0.00 | 0.00 | 83 | 1014.4 |
| 20260507120014 | 12 | 163 | 14.5 | 20.9 | 0.00 | 0.00 | 0.00 | 83 | 1014.4 |
| 20260507115504 | 12 | 145 | 11.3 | 17.7 | 0.00 | 0.00 | 0.00 | 84 | 1014.5 |
| 20260507115055 | 12 | 174 | 11.3 | 16.1 | 0.00 | 0.00 | 0.00 | 83 | 1014.5 |
| 20260507114558 | 12 | 149 | 14.5 | 19.3 | 0.00 | 0.00 | 0.00 | 83 | 1014.5 |
| 20260507114035 | 12 | 160 | 12.9 | 20.9 | 0.00 | 0.00 | 0.00 | 83 | 1014.5 |
| 20260507113513 | 12 | 159 | 12.9 | 20.9 | 0.00 | 0.00 | 0.00 | 83 | 1014.5 |
| 20260507113010 | 12 | 151 | 17.7 | 22.5 | 0.00 | 0.00 | 0.00 | 82 | 1014.5 |
| 20260507112555 | 12 | 159 | 12.9 | 24.1 | 0.00 | 0.00 | 0.00 | 82 | 1014.5 |
| 20260507112050 | 12 | 160 | 16.1 | 24.1 | 0.00 | 0.00 | 0.00 | 82 | 1014.5 |
| 20260507111536 | 12 | 148 | 14.5 | 22.5 | 0.00 | 0.00 | 0.00 | 82 | 1014.5 |
| 20260507111025 | 12 | 148 | 14.5 | 22.5 | 0.00 | 0.00 | 0.00 | 81 | 1014.6 |
| 20260507110515 | 12 | 152 | 16.1 | 19.3 | 0.00 | 0.00 | 0.00 | 81 | 1014.5 |
| 20260507110005 | 12 | 144 | 14.5 | 19.3 | 0.00 | 0.00 | 0.00 | 81 | 1014.6 |
| 20260507105556 | 12 | 146 | 14.5 | 22.5 | 0.00 | 0.00 | 0.00 | 81 | 1014.6 |
| 20260507105049 | 12 | 144 | 17.7 | 22.5 | 0.00 | 0.00 | 0.00 | 82 | 1014.6 |
| 20260507104537 | 12 | 155 | 16.1 | 22.5 | 0.00 | 0.00 | 0.00 | 81 | 1014.6 |
| 20260507104016 | 12 | 156 | 14.5 | 24.1 | 0.00 | 0.00 | 0.00 | 83 | 1014.6 |
| 20260507103505 | 12 | 142 | 17.7 | 24.1 | 0.00 | 0.00 | 0.00 | 82 | 1014.5 |
| 20260507103058 | 12 | 141 | 19.3 | 22.5 | 0.00 | 0.00 | 0.00 | 82 | 1014.5 |
| 20260507102546 | 12 | 153 | 17.7 | 22.5 | 0.00 | 0.00 | 0.00 | 83 | 1014.5 |
| 20260507102036 | 12 | 160 | 19.3 | 24.1 | 0.00 | 0.00 | 0.00 | 83 | 1014.5 |
| 20260507101534 | 12 | 142 | 20.9 | 24.1 | 0.00 | 0.00 | 0.00 | 83 | 1014.5 |
| 20260507101017 | 12 | 139 | 20.9 | 24.1 | 0.00 | 0.00 | 0.00 | 83 | 1014.4 |
| 20260507100506 | 12 | 145 | 20.9 | 24.1 | 0.00 | 0.00 | 0.00 | 83 | 1014.5 |
| 20260507100058 | 12 | 162 | 17.7 | 25.7 | 0.00 | 0.00 | 0.00 | 83 | 1014.5 |
| 20260507095550 | 11 | 148 | 19.3 | 27.4 | 0.00 | 0.00 | 0.00 | 83 | 1014.5 |
| 20260507095038 | 11 | 146 | 20.9 | 27.4 | 0.00 | 0.00 | 0.00 | 83 | 1014.5 |
| 20260507094534 | 11 | 147 | 22.5 | 27.4 | 0.00 | 0.00 | 0.00 | 83 | 1014.5 |
| 20260507094012 | 11 | 140 | 22.5 | 25.7 | 0.00 | 0.00 | 0.00 | 83 | 1014.4 |
| 20260507093558 | 11 | 148 | 20.9 | 25.7 | 0.00 | 0.00 | 0.00 | 83 | 1014.4 |
| 20260507093048 | 11 | 142 | 19.3 | 25.7 | 0.00 | 0.00 | 0.00 | 83 | 1014.4 |
| 20260507092538 | 11 | 139 | 20.9 | 24.1 | 0.00 | 0.00 | 0.00 | 83 | 1014.4 |
| 20260507092028 | 11 | 132 | 20.9 | 24.1 | 0.00 | 0.00 | 0.00 | 83 | 1014.3 |
| 20260507091520 | 11 | 143 | 19.3 | 24.1 | 0.00 | 0.00 | 0.00 | 83 | 1014.3 |
| 20260507091008 | 11 | 148 | 17.7 | 25.7 | 0.00 | 0.00 | 0.00 | 83 | 1014.3 |
| 20260507090600 | 11 | 149 | 19.3 | 25.7 | 0.00 | 0.00 | 0.00 | 83 | 1014.3 |
| 20260507090046 | 11 | 142 | 19.3 | 25.7 | 0.00 | 0.00 | 0.00 | 82 | 1014.3 |
| 20260507085536 | 11 | 153 | 19.3 | 24.1 | 0.00 | 0.00 | 0.00 | 82 | 1014.4 |
| 20260507085026 | 11 | 150 | 17.7 | 25.7 | 0.00 | 0.00 | 0.00 | 82 | 1014.3 |
| 20260507084519 | 11 | 149 | 19.3 | 27.4 | 0.00 | 0.00 | 0.00 | 82 | 1014.4 |
| 20260507084107 | 11 | 136 | 24.1 | 27.4 | 0.00 | 0.00 | 0.00 | 82 | 1014.3 |
| 20260507083546 | 11 | 145 | 17.7 | 25.7 | 0.00 | 0.00 | 0.00 | 82 | 1014.4 |
| 20260507083036 | 11 | 153 | 19.3 | 25.7 | 0.00 | 0.00 | 0.00 | 82 | 1014.4 |
| 20260507082527 | 11 | 148 | 19.3 | 25.7 | 0.00 | 0.00 | 0.00 | 82 | 1014.4 |
| 20260507082016 | 11 | 146 | 17.7 | 24.1 | 0.00 | 0.00 | 0.00 | 82 | 1014.4 |
| 20260507081506 | 11 | 143 | 19.3 | 27.4 | 0.00 | 0.00 | 0.00 | 82 | 1014.3 |
| 20260507081102 | 11 | 143 | 20.9 | 27.4 | 0.00 | 0.00 | 0.00 | 82 | 1014.3 |
| 20260507080548 | 11 | 145 | 20.9 | 27.4 | 0.00 | 0.00 | 0.00 | 82 | 1014.2 |
| 20260507080039 | 11 | 140 | 20.9 | 27.4 | 0.00 | 0.00 | 0.00 | 82 | 1014.3 |
| 20260507075527 | 11 | 142 | 20.9 | 27.4 | 0.00 | 0.00 | 0.00 | 83 | 1014.3 |
| 20260507075017 | 11 | 148 | 20.9 | 25.7 | 0.00 | 0.00 | 0.00 | 84 | 1014.3 |
| 20260507074504 | 11 | 137 | 20.9 | 25.7 | 0.00 | 0.00 | 0.00 | 85 | 1014.3 |
| 20260507074055 | 11 | 120 | 19.3 | 24.1 | 0.00 | 0.00 | 0.00 | 87 | 1014.3 |
| 20260507073535 | 11 | 120 | 20.9 | 25.7 | 0.00 | 0.00 | 0.00 | 87 | 1014.2 |
| 20260507073024 | 11 | 132 | 20.9 | 25.7 | 0.00 | 0.00 | 0.00 | 87 | 1014.3 |
| 20260507072514 | 11 | 128 | 17.7 | 20.9 | 0.00 | 0.00 | 0.00 | 87 | 1014.3 |
| 20260507072004 | 11 | 125 | 14.5 | 20.9 | 0.00 | 0.00 | 0.00 | 87 | 1014.3 |
| 20260507071555 | 11 | 120 | 16.1 | 20.9 | 0.00 | 0.00 | 0.00 | 87 | 1014.3 |
| 20260507071045 | 11 | 117 | 16.1 | 20.9 | 0.00 | 0.00 | 0.00 | 86 | 1014.3 |
| 20260507070535 | 11 | 123 | 17.7 | 20.9 | 0.00 | 0.00 | 0.00 | 87 | 1014.2 |
| 20260507070038 | 11 | 112 | 16.1 | 20.9 | 0.00 | 0.00 | 0.00 | 86 | 1014.2 |
| 20260507065514 | 11 | 114 | 16.1 | 20.9 | 0.00 | 0.00 | 0.00 | 86 | 1014.2 |
| 20260507065006 | 11 | 119 | 16.1 | 20.9 | 0.00 | 0.00 | 0.00 | 86 | 1014.2 |
| 20260507064559 | 11 | 109 | 16.1 | 20.9 | 0.00 | 0.00 | 0.00 | 86 | 1014.2 |
| 20260507064047 | 11 | 112 | 17.7 | 20.9 | 0.00 | 0.00 | 0.00 | 86 | 1014.1 |
| 20260507063526 | 10 | 111 | 16.1 | 20.9 | 0.00 | 0.00 | 0.00 | 87 | 1014.1 |
| 20260507063015 | 10 | 112 | 14.5 | 19.3 | 0.00 | 0.00 | 0.00 | 87 | 1014.1 |
| 20260507062505 | 10 | 101 | 12.9 | 16.1 | 0.00 | 0.00 | 0.00 | 88 | 1014.0 |
| 20260507062057 | 10 | 90 | 12.9 | 16.1 | 0.00 | 0.00 | 0.00 | 87 | 1014.1 |
| 20260507061547 | 10 | 76 | 11.3 | 17.7 | 0.00 | 0.00 | 0.00 | 88 | 1014.1 |
| 20260507061036 | 10 | 82 | 14.5 | 17.7 | 0.00 | 0.00 | 0.00 | 87 | 1014.0 |
| 20260507060526 | 10 | 76 | 11.3 | 17.7 | 0.00 | 0.00 | 0.00 | 87 | 1014.1 |
| 20260507060020 | 10 | 79 | 12.9 | 17.7 | 0.00 | 0.00 | 0.00 | 86 | 1014.0 |
| 20260507055507 | 10 | 67 | 14.5 | 19.3 | 0.00 | 0.00 | 0.00 | 86 | 1013.9 |
| 20260507055101 | 10 | 65 | 14.5 | 19.3 | 0.00 | 0.00 | 0.00 | 86 | 1013.9 |
| 20260507054548 | 10 | 75 | 14.5 | 17.7 | 0.00 | 0.00 | 0.00 | 86 | 1013.9 |
| 20260507054038 | 10 | 72 | 12.9 | 17.7 | 0.00 | 0.00 | 0.00 | 86 | 1013.8 |
| 20260507053517 | 10 | 69 | 12.9 | 19.3 | 0.00 | 0.00 | 0.00 | 86 | 1013.8 |
| 20260507053006 | 10 | 73 | 14.5 | 19.3 | 0.00 | 0.00 | 0.00 | 86 | 1013.8 |
| 20260507052557 | 10 | 64 | 14.5 | 19.3 | 0.00 | 0.00 | 0.00 | 86 | 1013.7 |
| 20260507052047 | 9 | 56 | 16.1 | 20.9 | 0.00 | 0.00 | 0.00 | 85 | 1013.7 |
| 20260507051537 | 9 | 58 | 17.7 | 19.3 | 0.00 | 0.00 | 0.00 | 85 | 1013.7 |
| 20260507051026 | 10 | 60 | 16.1 | 20.9 | 0.00 | 0.00 | 0.00 | 85 | 1013.7 |
| 20260507050516 | 10 | 61 | 14.5 | 19.3 | 0.00 | 0.00 | 0.00 | 84 | 1013.7 |
| 20260507050015 | 10 | 64 | 14.5 | 19.3 | 0.00 | 0.00 | 0.00 | 84 | 1013.7 |
| 20260507045600 | 9 | 60 | 12.9 | 20.9 | 0.00 | 0.00 | 0.00 | 84 | 1013.7 |
| 20260507045048 | 10 | 55 | 16.1 | 20.9 | 0.00 | 0.00 | 0.00 | 84 | 1013.6 |
| 20260507044551 | 10 | 65 | 16.1 | 20.9 | 0.00 | 0.00 | 0.00 | 84 | 1013.6 |
| 20260507044029 | 10 | 60 | 16.1 | 20.9 | 0.00 | 0.00 | 0.00 | 83 | 1013.6 |
| 20260507043505 | 10 | 58 | 16.1 | 20.9 | 0.00 | 0.00 | 0.00 | 83 | 1013.5 |
| 20260507043058 | 10 | 52 | 16.1 | 20.9 | 0.00 | 0.00 | 0.00 | 84 | 1013.5 |
| 20260507042548 | 10 | 58 | 16.1 | 20.9 | 0.00 | 0.00 | 0.00 | 83 | 1013.5 |
| 20260507042037 | 10 | 40 | 17.7 | 20.9 | 0.00 | 0.00 | 0.00 | 83 | 1013.5 |
| 20260507041527 | 10 | 59 | 17.7 | 20.9 | 0.00 | 0.00 | 0.00 | 83 | 1013.5 |
| 20260507041019 | 10 | 53 | 17.7 | 20.9 | 0.00 | 0.00 | 0.00 | 83 | 1013.5 |
| 20260507040507 | 10 | 47 | 17.7 | 20.9 | 0.00 | 0.00 | 0.00 | 83 | 1013.5 |
| 20260507040105 | 10 | 55 | 16.1 | 20.9 | 0.00 | 0.00 | 0.00 | 82 | 1013.5 |
| 20260507035548 | 10 | 52 | 16.1 | 20.9 | 0.00 | 0.00 | 0.00 | 82 | 1013.5 |
| 20260507035038 | 10 | 58 | 16.1 | 20.9 | 0.00 | 0.00 | 0.00 | 83 | 1013.5 |
| 20260507034530 | 10 | 53 | 16.1 | 20.9 | 0.00 | 0.00 | 0.00 | 83 | 1013.4 |
| 20260507034006 | 10 | 44 | 16.1 | 20.9 | 0.00 | 0.00 | 0.00 | 82 | 1013.4 |
| 20260507033558 | 10 | 40 | 16.1 | 20.9 | 0.00 | 0.00 | 0.00 | 82 | 1013.4 |
| 20260507033100 | 10 | 55 | 16.1 | 19.3 | 0.00 | 0.00 | 0.00 | 82 | 1013.4 |
| 20260507032537 | 10 | 43 | 14.5 | 17.7 | 0.00 | 0.00 | 0.00 | 81 | 1013.4 |
| 20260507032038 | 10 | 41 | 14.5 | 19.3 | 0.00 | 0.00 | 0.00 | 81 | 1013.4 |
| 20260507031519 | 10 | 38 | 14.5 | 19.3 | 0.00 | 0.00 | 0.00 | 81 | 1013.4 |
| 20260507031011 | 10 | 35 | 16.1 | 19.3 | 0.00 | 0.00 | 0.00 | 81 | 1013.4 |
| 20260507030559 | 10 | 48 | 14.5 | 19.3 | 0.00 | 0.00 | 0.00 | 80 | 1013.4 |
| 20260507030106 | 10 | 36 | 14.5 | 19.3 | 0.00 | 0.00 | 0.00 | 80 | 1013.4 |
| 20260507025539 | 10 | 49 | 16.1 | 19.3 | 0.00 | 0.00 | 0.00 | 80 | 1013.3 |
| 20260507025028 | 10 | 41 | 16.1 | 20.9 | 0.00 | 0.00 | 0.00 | 79 | 1013.2 |
| 20260507024521 | 10 | 35 | 17.7 | 20.9 | 0.00 | 0.00 | 0.00 | 79 | 1013.2 |
| 20260507024111 | 10 | 46 | 17.7 | 20.9 | 0.00 | 0.00 | 0.00 | 79 | 1013.2 |
| 20260507023549 | 10 | 37 | 16.1 | 22.5 | 0.00 | 0.00 | 0.00 | 79 | 1013.2 |
| 20260507023039 | 10 | 38 | 17.7 | 22.5 | 0.00 | 0.00 | 0.00 | 79 | 1013.2 |
| 20260507022529 | 11 | 58 | 16.1 | 22.5 | 0.00 | 0.00 | 0.00 | 79 | 1013.2 |
| 20260507022019 | 10 | 54 | 17.7 | 22.5 | 0.00 | 0.00 | 0.00 | 78 | 1013.2 |
| 20260507021508 | 11 | 57 | 16.1 | 24.1 | 0.00 | 0.00 | 0.00 | 78 | 1013.2 |
| 20260507021104 | 11 | 57 | 16.1 | 24.1 | 0.00 | 0.00 | 0.00 | 78 | 1013.2 |
| 20260507020551 | 11 | 67 | 19.3 | 22.5 | 0.00 | 0.00 | 0.00 | 78 | 1013.2 |
| 20260507020053 | 11 | 69 | 19.3 | 24.1 | 0.00 | 0.00 | 0.00 | 77 | 1013.1 |
| 20260507015529 | 11 | 63 | 17.7 | 24.1 | 0.00 | 0.00 | 0.00 | 77 | 1013.1 |
| 20260507015021 | 11 | 62 | 19.3 | 22.5 | 0.00 | 0.00 | 0.00 | 77 | 1013.1 |
| 20260507014510 | 11 | 66 | 16.1 | 22.5 | 0.00 | 0.00 | 0.00 | 77 | 1013.1 |
| 20260507014102 | 11 | 59 | 17.7 | 22.5 | 0.00 | 0.00 | 0.00 | 77 | 1013.1 |
| 20260507013543 | 11 | 80 | 19.3 | 22.5 | 0.00 | 0.00 | 0.00 | 76 | 1013.1 |
| 20260507013036 | 11 | 70 | 17.7 | 24.1 | 0.00 | 0.00 | 0.00 | 77 | 1013.0 |
| 20260507012523 | 11 | 69 | 19.3 | 22.5 | 0.00 | 0.00 | 0.00 | 76 | 1013.0 |
| 20260507012011 | 11 | 71 | 19.3 | 24.1 | 0.00 | 0.00 | 0.00 | 76 | 1013.0 |
| 20260507011602 | 11 | 71 | 19.3 | 24.1 | 0.00 | 0.00 | 0.00 | 76 | 1013.1 |
| 20260507011048 | 11 | 64 | 19.3 | 25.7 | 0.00 | 0.00 | 0.00 | 75 | 1013.1 |
| 20260507010537 | 11 | 70 | 20.9 | 25.7 | 0.00 | 0.00 | 0.00 | 75 | 1013.1 |
| 20260507010034 | 11 | 66 | 20.9 | 25.7 | 0.00 | 0.00 | 0.00 | 75 | 1013.1 |
| 20260507005517 | 11 | 68 | 19.3 | 25.7 | 0.00 | 0.00 | 0.00 | 75 | 1013.1 |
| 20260507005010 | 11 | 67 | 22.5 | 25.7 | 0.00 | 0.00 | 0.00 | 74 | 1013.0 |
| 20260507004559 | 11 | 73 | 22.5 | 25.7 | 0.00 | 0.00 | 0.00 | 74 | 1013.0 |
| 20260507004049 | 11 | 71 | 19.3 | 25.7 | 0.00 | 0.00 | 0.00 | 74 | 1013.0 |
| 20260507003527 | 11 | 68 | 19.3 | 25.7 | 0.00 | 0.00 | 0.00 | 74 | 1013.1 |
| 20260507003018 | 11 | 71 | 20.9 | 25.7 | 0.00 | 0.00 | 0.00 | 74 | 1013.1 |
| 20260507002507 | 11 | 69 | 20.9 | 25.7 | 0.00 | 0.00 | 0.00 | 73 | 1013.1 |
| 20260507002059 | 11 | 76 | 20.9 | 25.7 | 0.00 | 0.00 | 0.00 | 73 | 1013.1 |
| 20260507001546 | 11 | 71 | 20.9 | 25.7 | 0.00 | 0.00 | 0.00 | 74 | 1013.1 |
| 20260507001036 | 11 | 82 | 20.9 | 25.7 | 0.00 | 0.00 | 0.00 | 73 | 1013.1 |
| 20260507000526 | 11 | 71 | 17.7 | 22.5 | 0.00 | 0.00 | 0.00 | 74 | 1013.2 |
| 20260507000016 | 11 | 59 | 11.3 | 16.1 | 0.00 | 0.00 | 0.00 | 74 | 1013.2 |
| 20260506235507 | 11 | 54 | 11.3 | 16.1 | 0.00 | 0.00 | 0.00 | 75 | 1013.2 |
| 20260506235058 | 11 | 41 | 11.3 | 16.1 | 0.00 | 0.00 | 0.00 | 75 | 1013.2 |
| 20260506234555 | 11 | 13 | 11.3 | 14.5 | 0.00 | 0.00 | 0.00 | 75 | 1013.2 |
| 20260506234037 | 11 | 21 | 12.9 | 14.5 | 0.00 | 0.00 | 0.00 | 75 | 1013.1 |
| 20260506233516 | 11 | 341 | 8.0 | 12.9 | 0.00 | 0.00 | 0.00 | 75 | 1013.1 |
| 20260506233006 | 11 | 309 | 4.8 | 12.9 | 0.00 | 0.00 | 0.00 | 75 | 1013.1 |
| 20260506232558 | 11 | 313 | 6.4 | 12.9 | 0.00 | 0.00 | 0.00 | 75 | 1013.1 |
| 20260506232048 | 11 | 332 | 6.4 | 12.9 | 0.00 | 0.00 | 0.00 | 75 | 1013.1 |
| 20260506231537 | 11 | 302 | 6.4 | 12.9 | 0.00 | 0.00 | 0.00 | 75 | 1013.1 |
| 20260506231027 | 11 | 323 | 6.4 | 12.9 | 0.00 | 0.00 | 0.00 | 75 | 1013.2 |
| 20260506230517 | 11 | 300 | 6.4 | 12.9 | 0.00 | 0.00 | 0.00 | 75 | 1013.2 |
| 20260506230008 | 11 | 302 | 6.4 | 14.5 | 0.00 | 0.00 | 0.00 | 75 | 1013.1 |
| 20260506225601 | 11 | 309 | 8.0 | 14.5 | 0.00 | 0.00 | 0.00 | 75 | 1013.1 |
| 20260506225049 | 11 | 295 | 9.7 | 14.5 | 0.00 | 0.00 | 0.00 | 75 | 1013.1 |
| 20260506224541 | 11 | 322 | 8.0 | 12.9 | 0.00 | 0.00 | 0.00 | 75 | 1013.1 |
| 20260506224017 | 11 | 298 | 8.0 | 12.9 | 0.00 | 0.00 | 0.00 | 75 | 1013.0 |
| 20260506223507 | 11 | 301 | 9.7 | 14.5 | 0.00 | 0.00 | 0.00 | 75 | 1013.0 |
| 20260506223100 | 11 | 321 | 6.4 | 14.5 | 0.00 | 0.00 | 0.00 | 75 | 1013.1 |
| 20260506222552 | 11 | 297 | 8.0 | 14.5 | 0.00 | 0.00 | 0.00 | 74 | 1013.1 |
| 20260506222042 | 11 | 300 | 8.0 | 14.5 | 0.00 | 0.00 | 0.00 | 74 | 1013.0 |
| 20260506221528 | 11 | 303 | 8.0 | 16.1 | 0.00 | 0.00 | 0.00 | 74 | 1013.0 |
| 20260506221018 | 11 | 265 | 9.7 | 19.3 | 0.00 | 0.00 | 0.00 | 74 | 1013.0 |
| 20260506220508 | 11 | 296 | 11.3 | 19.3 | 0.00 | 0.00 | 0.00 | 74 | 1013.0 |
| 20260506215549 | 11 | 296 | 11.3 | 17.7 | 0.00 | 0.00 | 0.00 | 74 | 1012.9 |
| 20260506215039 | 10 | 297 | 12.9 | 17.7 | 0.00 | 0.00 | 0.00 | 75 | 1012.9 |
| 20260506214530 | 10 | 281 | 11.3 | 17.7 | 0.00 | 0.00 | 0.00 | 76 | 1012.9 |
| 20260506214010 | 11 | 326 | 9.7 | 17.7 | 0.00 | 0.00 | 0.00 | 76 | 1012.9 |
| 20260506213600 | 11 | 315 | 9.7 | 17.7 | 0.00 | 0.00 | 0.00 | 76 | 1012.9 |
| 20260506213050 | 11 | 291 | 11.3 | 17.7 | 0.00 | 0.00 | 0.00 | 76 | 1012.9 |
| 20260506212540 | 11 | 300 | 9.7 | 16.1 | 0.00 | 0.00 | 0.00 | 76 | 1013.0 |
| 20260506212030 | 11 | 285 | 9.7 | 16.1 | 0.00 | 0.00 | 0.00 | 76 | 1013.0 |
| 20260506211522 | 11 | 278 | 8.0 | 16.1 | 0.00 | 0.00 | 0.00 | 76 | 1012.9 |
| 20260506211009 | 11 | 279 | 9.7 | 16.1 | 0.00 | 0.00 | 0.00 | 76 | 1012.9 |
| 20260506210606 | 11 | 302 | 9.7 | 17.7 | 0.00 | 0.00 | 0.00 | 76 | 1012.9 |
| 20260506210052 | 11 | 304 | 9.7 | 17.7 | 0.00 | 0.00 | 0.00 | 75 | 1012.8 |
| 20260506205541 | 11 | 311 | 9.7 | 14.5 | 0.00 | 0.00 | 0.00 | 75 | 1012.8 |
| 20260506205031 | 11 | 299 | 6.4 | 16.1 | 0.00 | 0.00 | 0.00 | 75 | 1012.7 |
| 20260506204521 | 11 | 275 | 6.4 | 16.1 | 0.00 | 0.00 | 0.00 | 74 | 1012.7 |
| 20260506204116 | 11 | 309 | 8.0 | 16.1 | 0.00 | 0.00 | 0.00 | 74 | 1012.7 |
| 20260506203551 | 11 | 257 | 9.7 | 17.7 | 0.00 | 0.00 | 0.00 | 74 | 1012.7 |
| 20260506203042 | 11 | 293 | 12.9 | 17.7 | 0.00 | 0.00 | 0.00 | 75 | 1012.7 |
| 20260506202531 | 11 | 288 | 9.7 | 17.7 | 0.00 | 0.00 | 0.00 | 75 | 1012.6 |
| 20260506202021 | 11 | 292 | 8.0 | 17.7 | 0.00 | 0.00 | 0.00 | 75 | 1012.5 |
| 20260506201511 | 11 | 302 | 9.7 | 17.7 | 0.00 | 0.00 | 0.00 | 75 | 1012.5 |
| 20260506201103 | 11 | 327 | 12.9 | 17.7 | 0.00 | 0.00 | 0.00 | 75 | 1012.4 |
| 20260506200553 | 11 | 309 | 8.0 | 16.1 | 0.00 | 0.00 | 0.00 | 75 | 1012.4 |
| 20260506200042 | 11 | 285 | 8.0 | 14.5 | 0.00 | 0.00 | 0.00 | 75 | 1012.3 |
| 20260506195536 | 11 | 275 | 8.0 | 14.5 | 0.00 | 0.00 | 0.00 | 75 | 1012.4 |
| 20260506195022 | 11 | 290 | 11.3 | 19.3 | 0.00 | 0.00 | 0.00 | 75 | 1012.3 |
| 20260506194511 | 11 | 300 | 8.0 | 20.9 | 0.00 | 0.00 | 0.00 | 74 | 1012.3 |
| 20260506194103 | 11 | 279 | 11.3 | 20.9 | 0.00 | 0.00 | 0.00 | 74 | 1012.3 |
| 20260506193546 | 11 | 272 | 9.7 | 16.1 | 0.00 | 0.00 | 0.00 | 73 | 1012.2 |
| 20260506193032 | 11 | 292 | 12.9 | 16.1 | 0.00 | 0.00 | 0.00 | 73 | 1012.1 |
| 20260506192522 | 11 | 267 | 8.0 | 16.1 | 0.00 | 0.00 | 0.00 | 73 | 1012.2 |
| 20260506192017 | 11 | 288 | 11.3 | 17.7 | 0.00 | 0.00 | 0.00 | 72 | 1012.2 |
| 20260506191502 | 11 | 274 | 9.7 | 17.7 | 0.00 | 0.00 | 0.00 | 71 | 1012.1 |
| 20260506191054 | 11 | 269 | 12.9 | 20.9 | 0.00 | 0.00 | 0.00 | 71 | 1012.1 |
| 20260506190544 | 11 | 261 | 11.3 | 20.9 | 0.00 | 0.00 | 0.00 | 71 | 1012.1 |
| 20260506190039 | 11 | 267 | 12.9 | 19.3 | 0.00 | 0.00 | 0.00 | 72 | 1012.1 |
| 20260506185523 | 11 | 279 | 12.9 | 19.3 | 0.00 | 0.00 | 0.00 | 72 | 1012.1 |
| 20260506185013 | 11 | 287 | 12.9 | 19.3 | 0.00 | 0.00 | 0.00 | 72 | 1012.1 |
| 20260506184503 | 11 | 268 | 12.9 | 17.7 | 0.00 | 0.00 | 0.00 | 72 | 1012.0 |
| 20260506184055 | 11 | 274 | 11.3 | 19.3 | 0.00 | 0.00 | 0.00 | 72 | 1012.0 |
| 20260506183533 | 11 | 243 | 12.9 | 19.3 | 0.00 | 0.00 | 0.00 | 72 | 1012.0 |
| 20260506183021 | 12 | 270 | 12.9 | 19.3 | 0.00 | 0.00 | 0.00 | 71 | 1012.0 |
| 20260506182510 | 12 | 275 | 12.9 | 19.3 | 0.00 | 0.00 | 0.00 | 70 | 1011.9 |
| 20260506182103 | 12 | 287 | 9.7 | 19.3 | 0.00 | 0.00 | 0.00 | 70 | 1011.9 |
| 20260506181552 | 12 | 286 | 11.3 | 24.1 | 0.00 | 0.00 | 0.00 | 70 | 1011.9 |
| 20260506181042 | 12 | 290 | 12.9 | 24.1 | 0.00 | 0.00 | 0.00 | 70 | 1011.9 |
| 20260506180532 | 12 | 267 | 11.3 | 22.5 | 0.00 | 0.00 | 0.00 | 69 | 1011.8 |
| 20260506180026 | 12 | 286 | 12.9 | 20.9 | 0.00 | 0.00 | 0.00 | 69 | 1011.8 |
| 20260506175513 | 12 | 265 | 11.3 | 19.3 | 0.00 | 0.00 | 0.00 | 70 | 1011.7 |
| 20260506175001 | 12 | 269 | 11.3 | 20.9 | 0.00 | 0.00 | 0.00 | 71 | 1011.6 |
| 20260506174555 | 12 | 292 | 11.3 | 20.9 | 0.00 | 0.00 | 0.00 | 72 | 1011.6 |
| 20260506174043 | 12 | 270 | 11.3 | 19.3 | 0.00 | 0.00 | 0.00 | 71 | 1011.6 |
| 20260506173524 | 12 | 279 | 8.0 | 17.7 | 0.00 | 0.00 | 0.00 | 71 | 1011.6 |
| 20260506173017 | 12 | 240 | 6.4 | 17.7 | 0.00 | 0.00 | 0.00 | 71 | 1011.5 |
| 20260506172501 | 12 | 264 | 11.3 | 17.7 | 0.00 | 0.00 | 0.00 | 70 | 1011.5 |
| 20260506172055 | 12 | 271 | 9.7 | 19.3 | 0.00 | 0.00 | 0.00 | 70 | 1011.5 |
| 20260506171542 | 12 | 252 | 9.7 | 19.3 | 0.00 | 0.00 | 0.00 | 70 | 1011.5 |
| 20260506171033 | 12 | 265 | 8.0 | 19.3 | 0.00 | 0.00 | 0.00 | 70 | 1011.5 |
| 20260506170523 | 12 | 290 | 12.9 | 19.3 | 0.00 | 0.00 | 0.00 | 69 | 1011.5 |
| 20260506170013 | 12 | 258 | 12.9 | 19.3 | 0.00 | 0.00 | 0.00 | 68 | 1011.5 |
| 20260506165502 | 12 | 281 | 9.7 | 17.7 | 0.00 | 0.00 | 0.00 | 69 | 1011.5 |
| 20260506165054 | 12 | 253 | 8.0 | 19.3 | 0.00 | 0.00 | 0.00 | 68 | 1011.5 |
| 20260506164553 | 12 | 258 | 12.9 | 19.3 | 0.00 | 0.00 | 0.00 | 67 | 1011.5 |
| 20260506164034 | 12 | 250 | 12.9 | 20.9 | 0.00 | 0.00 | 0.00 | 67 | 1011.5 |
| 20260506163509 | 12 | 254 | 14.5 | 20.9 | 0.00 | 0.00 | 0.00 | 68 | 1011.5 |
| 20260506163107 | 12 | 275 | 11.3 | 20.9 | 0.00 | 0.00 | 0.00 | 69 | 1011.5 |
| 20260506162551 | 12 | 251 | 14.5 | 20.9 | 0.00 | 0.00 | 0.00 | 69 | 1011.5 |
| 20260506162041 | 12 | 277 | 9.7 | 20.9 | 0.00 | 0.00 | 0.00 | 71 | 1011.5 |
| 20260506161531 | 12 | 264 | 11.3 | 19.3 | 0.00 | 0.00 | 0.00 | 71 | 1011.5 |
| 20260506161021 | 12 | 228 | 9.7 | 22.5 | 0.00 | 0.00 | 0.00 | 72 | 1011.5 |
| 20260506160513 | 12 | 254 | 14.5 | 25.7 | 0.00 | 0.00 | 0.00 | 72 | 1011.5 |
| 20260506160001 | 12 | 265 | 11.3 | 25.7 | 0.00 | 0.00 | 0.00 | 72 | 1011.5 |
| 20260506155552 | 12 | 221 | 11.3 | 25.7 | 0.00 | 0.00 | 0.00 | 71 | 1011.5 |
| 20260506155043 | 12 | 221 | 14.5 | 22.5 | 0.00 | 0.00 | 0.00 | 71 | 1011.5 |
| 20260506154532 | 12 | 248 | 9.7 | 27.4 | 0.00 | 0.00 | 0.00 | 71 | 1011.7 |
| 20260506154013 | 12 | 215 | 11.3 | 29.0 | 0.00 | 0.00 | 0.00 | 70 | 1011.6 |
| 20260506153502 | 12 | 264 | 16.1 | 29.0 | 0.00 | 0.00 | 0.00 | 67 | 1011.5 |
| 20260506153058 | 13 | 201 | 16.1 | 25.7 | 0.00 | 0.00 | 0.00 | 65 | 1011.6 |
| 20260506152542 | 13 | 234 | 14.5 | 24.1 | 0.00 | 0.00 | 0.00 | 63 | 1011.6 |
| 20260506152032 | 13 | 192 | 9.7 | 20.9 | 0.00 | 0.00 | 0.00 | 62 | 1011.6 |
| 20260506151525 | 13 | 215 | 12.9 | 24.1 | 0.00 | 0.00 | 0.00 | 63 | 1011.6 |
| 20260506151016 | 13 | 229 | 11.3 | 24.1 | 0.00 | 0.00 | 0.00 | 65 | 1011.7 |
| 20260506150502 | 12 | 223 | 16.1 | 24.1 | 0.00 | 0.00 | 0.00 | 64 | 1011.7 |
| 20260506150056 | 13 | 213 | 11.3 | 20.9 | 0.00 | 0.00 | 0.00 | 66 | 1011.7 |
| 20260506145544 | 13 | 242 | 9.7 | 24.1 | 0.00 | 0.00 | 0.00 | 68 | 1011.7 |
| 20260506145037 | 13 | 259 | 11.3 | 22.5 | 0.00 | 0.00 | 0.00 | 68 | 1011.8 |
| 20260506144527 | 13 | 223 | 12.9 | 25.7 | 0.00 | 0.00 | 0.00 | 67 | 1011.7 |
| 20260506144002 | 13 | 207 | 11.3 | 25.7 | 0.00 | 0.00 | 0.00 | 66 | 1011.8 |
| 20260506143554 | 13 | 227 | 11.3 | 24.1 | 0.00 | 0.00 | 0.00 | 67 | 1011.7 |
| 20260506143045 | 13 | 244 | 9.7 | 25.7 | 0.00 | 0.00 | 0.00 | 68 | 1011.8 |
| 20260506142534 | 13 | 242 | 14.5 | 25.7 | 0.00 | 0.00 | 0.00 | 69 | 1011.8 |
| 20260506142023 | 13 | 291 | 12.9 | 24.1 | 0.00 | 0.00 | 0.00 | 69 | 1011.9 |
| 20260506141513 | 13 | 227 | 9.7 | 20.9 | 0.00 | 0.00 | 0.00 | 69 | 1011.9 |
| 20260506141006 | 13 | 219 | 11.3 | 22.5 | 0.00 | 0.00 | 0.00 | 68 | 1011.9 |
| 20260506140555 | 12 | 214 | 9.7 | 27.4 | 0.00 | 0.00 | 0.00 | 68 | 1011.9 |